Location: G�ppingen
(48.7089°N, 9.6563°E)
Time: 08:43:38
(UTC+01:00)

Tiangong 2 - Visible Passes

Search period start: 24 November 2017 00:00
Search period end: 04 December 2017 00:00
Orbit: 386 x 392 km, 42.8° (Epoch: 24 November)

Date Brightness Start Highest point End Pass type
(mag) Time Alt. Az. Time Alt. Az. Time Alt. Az.
27 Nov 4.0 06:50:12 10° SSW 06:52:04 15° SSE 06:53:56 10° ESE visible
28 Nov 4.3 05:53:38 10° SSE 05:54:05 10° SSE 05:54:33 10° SE visible
29 Nov 3.5 06:29:45 10° SSW 06:32:09 20° SSE 06:34:34 10° ESE visible
30 Nov 3.7 05:33:21 14° S 05:34:06 15° SSE 05:36:02 10° ESE visible
30 Nov 3.0 07:07:34 10° SW 07:10:21 27° S 07:13:08 10° ESE visible
01 Dec 3.0 06:10:23 15° SW 06:12:13 24° S 06:14:54 10° ESE visible
02 Dec 3.7 05:15:00 18° SE 05:15:00 18° SE 05:16:33 10° ESE visible
02 Dec 2.8 06:47:38 10° WSW 06:50:26 28° S 06:53:14 10° ESE visible
03 Dec 2.6 05:51:50 26° SSW 05:52:16 27° S 05:55:03 10° ESE visible
